Wind_Speed
19 18 18 19 20 20 21 21 21 22 22 23 24 25 26 27 29 29 27 24 23 24 24 23 22 23 24 28 32 36 38 38 38 39 40 41 41 41 41 42 43 44 43 41 41 41 39 38 39 40 41 40 39 38 38 38 39 38 38 37 36 36 35 34 33 32 30 29 28 27 27 27 27 27
20 19 19 19 19 20 20 21 22 23 22 22 23 24 25 27 28 30 31 30 27 27 27 28 29 28 26 27 31 34 38 39 39 40 40 40 41 41 41 42 43 45 45 43 42 42 40 39 40 41 42 42 41 39 38 39 39 40 39 38 37 36 36 35 35 34 33 32 30 29 28 28 28 28
20 20 20 21 21 21 20 21 22 22 23 23 23 24 25 26 27 29 32 33 32 30 31 31 32 33 31 28 29 33 36 39 40 41 41 40 40 41 42 42 43 44 45 44 44 43 41 39 40 42 44 43 42 40 39 38 38 40 40 40 39 37 37 36 36 35 35 34 33 32 30 30 30 30
20 20 21 21 22 21 21 21 22 23 24 24 25 25 25 26 27 29 31 34 35 33 34 34 34 35 35 32 30 32 36 38 41 43 42 41 40 41 42 43 43 43 45 45 45 44 42 40 40 42 44 43 42 40 39 38 37 38 40 41 40 39 37 36 36 36 36 35 34 34 33 32 32 32
20 20 21 21 21 21 21 21 22 23 25 26 26 26 25 25 26 28 30 34 37 36 35 35 36 37 37 35 31 31 34 38 41 43 44 43 41 41 41 42 42 42 44 45 45 44 43 42 42 43 44 43 41 40 39 38 37 37 38 40 41 40 39 37 36 35 35 35 35 34 33 33 33 33
21 21 21 21 21 22 22 22 23 24 25 26 26 25 25 25 25 27 30 32 36 38 37 36 38 38 38 36 33 31 33 37 41 44 45 45 44 42 42 42 42 42 43 45 45 45 45 44 44 44 43 42 41 39 39 38 37 37 37 38 39 40 40 38 37 36 35 34 34 33 33 33 34 34
22 22 21 21 21 22 22 22 23 24 25 25 25 24 25 26 26 26 29 31 35 39 39 38 39 40 38 37 35 32 31 34 39 43 45 46 46 45 43 43 42 41 41 43 45 46 45 45 46 45 43 41 40 39 39 38 37 37 37 37 38 39 39 39 38 37 35 34 33 32 32 33 33 33
22 22 21 21 21 21 21 22 22 23 23 23 24 25 26 27 27 27 28 30 33 37 39 39 40 41 39 37 36 34 31 31 36 41 44 46 47 47 46 45 44 42 41 41 43 45 46 47 47 46 44 42 41 40 40 39 38 38 37 37 37 37 38 38 38 38 37 36 34 33 32 32 32 32
21 21 21 21 21 21 22 22 23 23 23 23 24 25 26 28 28 27 28 29 31 35 38 40 41 40 39 37 36 34 32 31 32 37 42 46 47 48 48 48 46 44 42 42 42 44 46 47 48 47 45 43 42 41 40 40 39 39 38 38 37 37 37 37 37 38 38 37 36 35 33 33 32 32
21 21 21 21 21 21 22 22 22 23 23 23 24 24 25 27 27 26 27 29 31 34 36 39 41 39 37 38 36 32 31 31 30 33 38 43 47 48 49 49 48 47 45 43 42 43 44 45 46 46 46 44 43 42 41 41 40 40 39 39 39 38 37 37 37 37 38 38 37 36 35 34 33 32
20 20 21 21 21 21 22 21 21 21 21 22 23 23 24 25 25 26 28 29 31 33 35 37 40 39 38 39 38 32 29 30 30 30 34 40 45 48 49 50 49 48 48 46 44 42 43 43 44 45 45 46 45 44 43 43 42 41 40 40 41 40 38 37 37 37 37 37 38 38 37 35 34 33
20 20 20 20 21 21 22 22 22 21 21 21 22 22 24 25 26 27 29 30 31 32 34 36 38 39 39 40 39 32 27 29 29 29 30 35 42 47 49 50 49 49 49 48 46 44 44 44 43 43 44 45 46 45 45 45 44 43 42 42 42 41 39 38 38 38 37 37 37 38 38 37 36 35
20 20 20 20 21 21 22 22 22 22 22 22 22 22 24 25 27 28 29 30 31 32 34 36 37 39 40 40 38 32 25 26 29 29 28 31 37 44 48 49 49 50 50 49 48 47 46 45 44 43 43 43 44 45 45 45 45 44 43 41 41 41 40 39 39 39 38 37 37 37 38 38 37 36
20 20 20 20 21 22 22 22 23 23 23 23 23 23 24 25 27 28 29 30 31 32 34 35 36 37 40 40 37 33 27 25 28 29 29 29 33 40 46 48 48 49 50 50 49 48 47 46 45 45 45 43 42 43 44 44 43 42 41 39 39 39 39 39 38 38 38 37 36 36 37 38 38 37
20 20 20 21 22 22 22 22 23 23 23 23 23 23 24 25 26 27 29 29 30 32 34 34 34 36 40 40 37 34 32 29 27 29 30 30 30 35 43 47 47 47 48 49 50 48 47 47 47 46 45 45 43 42 41 41 41 40 39 39 39 38 38 37 37 37 38 38 37 36 36 38 39 38
23 22 21 22 23 23 22 22 23 22 22 22 23 23 23 24 25 27 28 30 30 32 33 33 32 35 40 41 38 36 36 34 31 29 31 31 31 32 40 46 46 44 44 48 50 49 47 47 48 47 46 46 45 43 41 40 40 40 39 39 39 39 38 37 36 37 38 38 37 36 36 38 40 39
24 23 23 23 24 23 23 23 23 22 22 22 22 23 22 23 24 26 27 29 30 31 33 33 32 34 38 40 39 39 39 37 35 33 32 33 33 33 36 44 46 43 42 45 49 49 48 47 48 48 46 45 45 44 42 41 41 40 40 40 39 39 38 37 36 36 37 37 36 35 36 38 39 39
23 23 23 23 23 24 23 23 24 23 23 23 22 22 22 22 23 24 25 27 29 30 32 32 32 33 37 39 40 41 42 40 38 37 36 35 35 34 34 39 45 45 42 44 47 49 48 47 47 48 46 45 45 44 42 41 41 40 40 40 39 39 39 38 37 36 36 36 35 35 36 38 39 39
22 22 23 23 23 23 24 24 24 24 23 23 22 22 22 22 22 22 23 25 27 28 30 31 33 34 36 39 41 43 45 43 39 39 39 37 36 36 35 37 43 46 44 43 46 48 47 46 46 46 44 44 45 44 42 40 39 38 38 39 39 39 39 39 37 37 36 35 34 35 36 38 39 39
21 22 23 23 23 23 24 24 25 25 24 23 23 22 23 22 21 21 22 24 26 27 28 30 32 35 37 39 41 44 47 44 38 38 40 39 38 37 36 36 40 45 44 43 45 47 46 44 44 43 42 43 44 44 43 40 38 37 37 37 39 39 40 39 38 37 37 36 35 35 37 39 39 39
21 22 23 24 24 24 24 25 25 25 25 24 23 23 23 23 22 21 22 24 25 26 28 29 30 33 37 39 42 46 47 43 37 36 40 40 39 38 38 36 36 41 44 42 43 46 45 43 42 42 41 42 43 44 43 41 38 37 37 37 38 40 40 39 39 38 38 37 36 36 38 39 40 40
20 22 23 24 24 24 25 26 25 26 26 26 25 24 24 24 23 22 23 24 25 26 27 28 29 32 36 39 43 47 46 41 35 34 37 39 39 38 37 35 34 38 42 42 41 44 44 42 41 41 41 41 42 42 41 40 39 38 37 37 38 40 41 40 39 39 38 37 37 38 39 40 41 41
20 22 24 25 25 25 26 27 27 27 28 27 26 25 25 25 24 24 24 25 26 26 27 27 29 33 36 39 43 46 44 39 35 32 33 37 39 38 37 34 33 37 41 41 41 43 42 40 40 40 40 41 41 41 40 39 39 38 38 37 38 39 40 40 39 39 39 39 38 38 39 41 42 42
20 22 24 25 25 26 27 28 28 28 28 28 26 26 26 26 25 25 25 26 27 27 28 29 31 34 37 39 42 44 42 39 35 31 31 34 37 38 37 34 34 37 40 40 40 41 40 38 39 39 39 40 40 40 39 38 38 38 37 37 37 37 38 39 39 39 39 39 39 39 40 41 42 43
21 22 24 25 26 26 27 28 28 28 28 28 27 26 26 25 25 26 26 27 27 28 29 30 32 35 37 39 41 43 42 39 34 29 29 33 36 38 36 33 34 37 38 38 40 40 38 38 38 37 38 39 39 38 38 37 37 37 37 36 36 36 37 39 39 39 39 39 40 40 41 42 42 42
23 24 25 25 25 26 27 28 28 28 27 27 26 25 25 24 25 26 27 27 27 28 29 30 32 35 38 39 42 44 44 40 35 29 27 31 35 35 32 32 34 35 35 36 38 39 38 38 38 37 37 38 37 37 37 36 36 36 36 36 36 36 37 39 40 40 40 40 40 40 41 42 42 42
25 26 26 26 26 26 26 27 27 26 25 25 24 24 24 25 26 26 26 27 27 28 29 30 32 35 38 40 43 46 47 44 38 31 27 29 31 30 28 30 32 32 31 34 37 38 38 38 37 36 36 36 37 37 36 35 34 34 34 35 36 36 36 38 39 40 40 40 40 41 41 42 42 42
27 27 27 27 26 26 26 26 25 24 23 23 23 23 24 25 26 26 26 26 27 28 29 29 31 34 38 41 44 47 50 48 40 32 28 27 26 25 25 28 30 31 31 34 37 37 38 38 36 34 34 35 35 36 35 33 33 33 32 33 33 34 35 36 37 39 40 40 41 42 43 43 42 42
29 28 28 27 25 25 25 24 23 22 23 23 22 23 24 26 26 26 26 26 27 28 29 29 31 34 37 39 43 46 49 48 41 31 25 22 20 20 23 26 29 31 32 34 36 37 37 38 37 35 34 34 34 33 33 32 32 33 32 32 31 32 33 35 36 38 39 40 41 42 42 42 41 41
30 29 28 27 25 24 23 22 22 22 22 22 22 23 25 27 27 26 27 27 27 28 29 29 30 33 35 38 41 44 46 46 41 33 24 16 13 15 19 23 27 30 33 33 34 36 37 37 38 37 35 34 34 33 31 31 31 31 31 31 31 31 32 34 36 37 39 40 40 41 41 41 41 42
31 30 28 26 24 23 22 21 21 22 22 22 22 24 26 27 28 27 27 27 27 28 29 29 30 32 33 36 39 41 44 45 42 35 26 12 7 9 12 17 22 27 32 33 33 35 37 37 37 38 37 35 33 31 31 30 29 29 30 30 30 31 32 33 35 36 38 38 39 40 41 42 42 43
32 30 28 26 24 22 21 21 21 22 22 22 23 25 26 27 28 28 28 28 28 28 28 28 29 30 31 33 36 38 41 44 42 35 28 15 2 11 13 16 22 27 31 33 33 34 36 37 36 36 36 33 30 29 30 31 30 29 28 29 29 30 31 32 34 35 36 38 39 39 40 42 43 43
31 29 27 25 23 22 21 22 22 22 23 23 24 25 26 27 28 28 28 28 27 27 27 27 28 28 28 30 34 35 37 42 42 36 30 23 7 11 16 16 21 28 31 33 35 35 35 36 36 35 34 33 31 31 31 31 31 30 28 28 28 29 30 32 32 33 34 36 37 39 40 41 41 41
29 28 25 23 22 22 22 23 23 23 23 24 24 25 25 27 28 28 28 28 27 26 26 26 26 27 27 28 32 34 34 39 42 38 32 29 19 3 16 18 19 25 30 32 34 35 35 35 35 35 35 34 33 32 32 31 30 29 29 29 28 27 29 31 32 33 33 34 36 38 39 39 39 40
29 26 22 21 21 22 23 23 23 23 24 24 24 25 26 26 28 28 28 28 27 26 25 25 24 24 25 25 28 32 33 34 39 40 34 30 26 13 8 19 20 21 27 31 32 33 34 35 35 34 34 34 33 33 32 31 30 29 30 30 28 26 27 29 31 31 32 33 34 36 37 39 39 40
27 22 18 19 21 22 23 23 23 24 25 25 25 25 26 26 27 28 27 27 27 26 24 24 23 22 23 23 25 28 30 31 34 38 37 32 27 22 8 10 19 22 25 27 29 30 31 32 34 34 33 33 33 34 33 32 31 31 31 30 29 27 27 27 29 30 31 32 33 34 36 37 38 38
23 19 17 19 20 21 22 23 23 24 25 25 25 26 26 26 26 26 26 26 26 25 24 23 22 22 21 22 22 23 26 28 30 33 37 35 29 23 18 8 7 20 25 25 26 27 28 30 32 34 34 33 33 33 33 33 33 32 32 32 31 30 29 28 29 30 30 30 31 32 34 34 34 34
20 19 18 18 19 21 22 22 23 24 25 25 26 26 26 26 25 24 25 25 24 23 22 22 21 21 20 20 20 20 21 24 27 28 32 35 33 26 21 18 10 5 17 24 27 27 27 29 31 33 34 35 34 33 33 33 34 35 34 33 32 31 31 31 32 31 30 29 29 29 30 32 32 33
18 19 18 19 19 20 21 22 23 24 24 25 25 25 25 24 23 22 22 22 21 21 20 20 19 19 18 18 19 19 19 20 23 25 26 30 34 31 25 21 17 11 5 13 23 29 30 30 30 30 30 32 33 34 34 35 36 35 35 35 34 33 33 33 33 33 33 31 29 28 29 30 32 33
18 19 19 19 20 20 21 21 22 23 24 24 24 24 22 21 20 20 20 20 19 18 17 17 17 16 16 16 16 17 17 17 19 21 23 25 28 30 30 26 21 16 11 8 12 21 29 31 29 29 33 34 32 32 34 37 37 36 34 35 36 35 35 35 34 34 34 33 31 30 30 31 33 35
18 19 19 20 20 20 21 22 22 23 23 23 23 22 20 19 19 18 18 18 18 16 15 15 15 14 14 15 14 14 15 15 15 17 19 21 23 25 27 27 26 21 15 11 11 12 18 19 15 19 30 38 38 36 35 34 35 36 36 37 38 37 37 37 37 36 34 33 32 32 31 31 33 35
20 20 21 22 22 21 21 21 21 21 22 22 22 20 19 18 18 18 17 16 16 15 13 13 13 13 13 13 13 13 13 13 13 13 15 16 18 20 22 24 27 27 23 18 15 14 14 16 16 12 16 25 33 38 40 37 36 37 37 37 37 38 38 38 39 38 35 33 32 31 30 31 32 33
21 22 22 23 22 21 19 19 19 19 20 20 20 19 17 16 16 16 15 14 14 13 12 12 12 12 12 12 12 12 11 11 11 11 12 13 14 16 18 20 22 25 27 25 21 17 13 13 17 18 16 16 18 23 30 36 36 36 37 36 36 36 36 36 36 36 35 35 33 31 29 30 31 31
21 22 21 21 20 19 17 17 17 17 17 17 18 17 15 13 13 13 12 12 12 11 11 10 10 10 10 10 11 11 10 10 9 9 10 11 11 12 15 17 19 20 22 24 24 22 17 13 12 13 14 15 18 20 20 22 25 27 30 33 33 34 35 35 34 35 35 34 33 32 32 32 32 30
20 20 19 18 17 17 16 16 15 15 14 13 13 13 11 10 9 9 9 9 9 10 10 10 9 9 9 9 9 10 10 10 9 8 8 8 9 10 11 12 14 16 17 18 20 22 22 20 17 15 13 11 11 14 16 17 19 21 23 24 26 29 30 31 31 32 32 32 32 34 35 34 32 30
Wind_Direction
303 303 303 304 304 305 304 304 304 303 302 300 299 298 298 297 297 296 294 292 292 295 300 301 301 298 288 274 265 260 258 256 255 253 250 248 244 241 241 239 235 233 233 234 234 232 231 232 232 231 231 232 232 233 235 237 238 237 236 236 236 238 240 241 242 242 242 242 242 242 243 244 247 249
303 305 306 306 306 306 306 306 306 305 303 300 299 298 297 297 297 296 295 296 296 297 301 304 304 303 297 281 267 260 257 256 254 253 251 249 246 243 241 241 238 234 232 232 232 232 231 232 234 233 231 231 232 232 234 236 237 237 237 236 236 236 238 240 241 242 243 243 243 243 243 244 246 249
305 307 307 305 305 305 305 305 306 305 302 300 298 297 297 296 296 297 296 296 298 301 303 305 306 305 303 291 273 260 255 254 253 252 251 248 247 245 243 241 239 236 233 231 229 230 231 233 234 233 231 230 231 231 232 234 237 238 237 237 236 236 237 238 240 242 243 244 244 244 245 245 247 248
307 308 307 305 304 303 303 303 303 302 299 298 297 296 296 296 296 296 296 296 298 303 306 308 309 309 307 300 284 265 253 250 250 250 250 248 245 244 243 242 240 237 234 232 229 229 230 231 232 232 231 231 230 230 231 233 235 237 238 237 236 236 236 237 239 240 242 243 244 245 245 246 247 248
307 308 307 307 306 305 304 302 301 299 296 295 295 296 296 296 297 297 298 298 299 302 307 311 313 313 310 305 295 276 257 247 246 247 248 247 245 243 242 241 240 238 234 232 230 229 229 230 231 231 230 230 230 230 231 232 234 236 237 237 236 236 236 236 238 239 240 242 243 244 245 245 246 247
309 309 308 309 308 306 305 303 301 298 296 295 295 296 297 298 299 301 302 302 301 302 307 313 315 316 313 308 302 286 266 251 244 243 244 245 244 242 241 239 239 238 235 232 230 229 229 229 229 230 229 229 229 230 231 232 233 235 236 236 236 236 235 235 236 237 238 240 241 242 244 244 245 246
310 310 311 311 308 307 306 306 304 302 299 297 295 296 297 299 301 304 305 305 304 304 308 314 317 317 315 311 307 296 275 258 249 242 240 242 243 241 239 238 237 237 235 232 230 230 230 229 228 227 227 225 225 227 230 232 233 234 236 236 236 235 235 234 235 236 237 238 239 240 242 243 244 244
310 311 311 310 307 307 308 308 306 305 303 300 296 296 297 299 302 305 306 305 304 304 307 314 318 318 316 314 312 303 283 263 255 248 240 238 240 240 239 237 235 235 235 234 231 231 231 230 228 226 225 224 223 225 228 231 233 234 235 236 236 235 235 234 234 235 236 237 237 239 240 241 242 243
309 309 308 307 306 307 309 309 308 306 304 300 297 297 299 301 304 306 306 305 304 304 308 314 318 319 317 316 315 307 289 270 259 253 245 238 237 238 238 237 236 234 234 235 233 231 230 230 228 227 226 225 225 225 227 229 231 232 234 235 236 236 235 235 235 235 235 236 237 237 238 239 240 240
308 307 305 304 304 306 308 311 310 308 305 301 301 302 303 304 305 306 307 306 305 306 308 313 318 319 318 318 318 310 293 278 268 260 249 240 236 236 236 236 236 235 234 234 234 233 230 229 229 229 229 228 228 228 228 229 229 231 233 236 237 236 235 235 235 235 235 235 236 236 236 237 238 238
305 304 303 302 305 309 311 313 313 311 307 304 305 306 307 308 308 308 308 306 306 306 308 313 317 319 320 321 320 313 295 283 280 273 258 243 236 235 235 235 235 235 234 233 233 233 231 229 229 230 231 230 230 230 231 231 231 232 234 237 238 237 235 235 235 235 236 235 235 235 235 236 237 237
303 301 302 304 308 311 313 313 312 311 309 308 308 310 310 310 311 310 308 307 306 307 309 314 316 319 323 324 322 316 297 282 282 283 271 251 239 235 235 235 234 233 233 232 232 232 231 230 229 229 231 231 230 231 231 231 232 234 236 238 238 237 235 235 235 235 235 235 234 234 234 235 236 237
303 302 303 305 307 310 311 311 311 310 310 310 311 312 312 311 311 310 308 307 308 308 310 314 317 321 327 328 324 320 305 284 278 281 278 263 246 238 235 235 235 233 233 233 233 232 232 231 230 230 230 230 231 230 230 230 232 233 236 238 238 237 235 234 235 235 235 235 234 234 234 234 234 235
302 302 302 302 304 307 308 310 310 310 311 311 313 314 313 312 311 309 307 308 308 309 312 315 318 323 329 330 326 321 313 297 281 277 279 273 257 244 237 235 235 235 234 234 233 233 232 233 232 231 229 229 229 229 228 229 231 232 234 236 237 236 235 234 234 235 236 235 234 234 234 233 233 234
303 301 301 301 302 304 306 308 310 311 311 312 313 314 314 312 310 308 308 309 310 313 316 317 319 323 327 328 325 318 313 304 287 275 274 275 267 252 242 236 234 235 236 236 234 232 231 233 233 231 230 228 228 228 228 229 231 233 233 234 235 235 235 234 235 235 235 234 234 234 234 233 232 232
304 302 301 302 303 304 306 308 308 309 310 311 312 313 313 311 310 309 310 311 312 316 318 318 319 323 325 326 325 320 312 304 293 279 269 269 271 262 248 240 234 233 236 238 236 231 229 232 234 232 230 229 228 229 231 232 234 235 235 235 235 234 234 234 234 235 234 233 233 234 235 233 230 229
304 303 302 302 304 306 307 307 306 308 310 310 310 312 312 311 310 310 312 313 315 317 318 317 318 322 324 325 327 325 317 306 296 286 272 263 264 264 255 244 237 234 235 237 237 233 230 231 234 233 231 230 230 231 233 235 237 237 236 236 235 234 234 234 234 234 233 232 232 234 235 232 229 227
303 301 302 303 305 306 306 306 307 308 310 309 308 310 311 310 311 312 313 313 314 316 316 315 317 321 325 326 328 329 323 311 298 289 280 268 261 260 258 249 240 234 234 236 237 235 231 230 232 232 231 231 232 233 235 236 237 237 236 235 235 235 234 233 232 232 231 230 232 234 233 230 228 227
302 301 302 304 305 306 306 307 307 308 308 307 307 308 308 309 311 312 312 311 313 314 314 315 318 322 326 327 328 329 327 316 299 287 283 277 268 261 257 251 241 234 232 234 237 235 232 231 232 231 230 231 232 233 234 234 235 235 233 233 234 234 232 231 230 230 229 229 232 234 232 229 226 226
302 302 303 304 305 306 306 307 307 307 307 306 306 306 305 307 310 311 310 310 312 312 313 316 321 324 326 326 327 328 326 318 302 285 279 278 274 266 258 251 243 236 232 233 236 236 232 231 233 232 231 232 231 231 232 233 233 233 232 232 233 232 231 229 228 228 229 229 231 232 231 228 226 225
300 302 303 303 305 306 306 306 306 307 307 308 307 306 305 308 310 309 308 309 309 311 314 318 323 325 324 325 326 326 325 319 304 287 279 277 275 267 259 252 244 238 233 231 234 236 233 231 232 234 234 234 232 230 231 232 232 231 231 232 232 231 229 227 226 228 229 230 231 231 230 228 226 225
299 301 302 303 305 306 305 304 305 307 308 309 309 307 307 308 309 308 307 309 310 312 315 318 321 322 323 326 328 326 324 319 307 291 282 279 276 269 259 253 246 239 233 229 231 234 233 230 230 233 235 234 231 229 229 230 231 230 229 230 231 230 228 226 225 227 230 231 231 230 229 228 226 225
298 299 301 302 304 305 304 304 306 306 306 308 308 308 307 308 308 309 310 312 314 314 317 318 319 321 325 329 330 327 323 319 311 297 284 280 278 271 260 251 246 240 231 226 228 231 231 229 229 231 235 234 229 227 228 228 228 228 227 228 229 228 227 226 225 226 228 230 230 229 228 227 226 225
296 297 298 299 301 302 303 304 305 304 304 306 307 307 307 307 308 310 313 315 316 316 318 320 321 325 329 331 332 329 324 320 315 302 285 277 276 272 262 250 245 240 231 224 225 229 230 229 229 230 233 233 229 226 226 226 226 226 227 227 228 227 226 226 225 226 227 228 228 228 227 227 226 225
295 294 295 295 296 299 301 302 304 303 304 305 307 307 307 307 309 313 316 317 317 318 320 322 325 328 330 331 333 332 328 324 320 307 285 274 273 272 262 249 242 239 231 223 223 226 228 228 227 228 231 232 229 226 224 224 225 226 227 227 227 227 227 227 226 226 227 228 228 228 227 227 226 225
295 294 293 292 293 295 298 301 303 303 304 306 307 307 308 309 312 315 316 317 318 319 320 323 326 327 329 330 333 335 334 331 325 312 290 274 271 270 262 248 241 238 231 223 221 223 226 226 226 228 231 230 227 226 224 225 226 227 228 228 227 227 227 227 227 228 229 229 230 229 228 227 227 225
296 295 292 291 291 293 297 302 305 305 306 307 307 308 309 311 314 316 317 317 318 318 319 322 324 326 330 333 334 336 338 337 331 321 304 285 273 267 257 243 237 234 228 220 218 220 222 223 224 227 229 227 226 226 226 225 225 227 228 228 227 226 226 226 227 227 228 229 230 229 229 228 227 226
297 295 293 291 290 293 300 305 306 306 306 307 307 309 311 313 315 316 317 317 317 316 317 320 323 326 331 334 335 337 340 340 337 330 317 300 280 262 248 237 232 228 222 216 215 217 220 220 222 225 227 226 225 225 225 224 224 225 228 227 225 224 225 226 226 226 227 229 230 229 228 228 227 227
296 295 293 292 292 296 303 306 306 306 306 307 308 310 312 313 313 315 316 316 316 315 315 318 323 327 332 335 336 338 341 343 343 339 327 310 287 257 238 230 227 222 217 212 211 215 218 217 218 222 224 224 223 222 222 223 223 224 225 226 225 224 224 225 226 226 226 228 229 229 229 229 229 229
296 295 294 295 295 298 303 304 304 305 306 308 309 311 311 311 311 312 314 315 315 315 316 320 325 328 331 335 337 339 342 345 348 349 341 318 285 253 233 225 222 217 211 207 208 213 217 216 216 219 221 221 220 218 218 221 223 223 224 224 225 226 225 225 225 225 226 228 228 229 229 230 230 230
297 296 296 297 297 298 300 301 302 304 306 307 309 311 311 310 311 312 313 314 316 317 319 322 325 327 330 334 337 340 343 346 350 354 353 335 263 236 228 223 221 215 206 203 205 211 215 216 215 217 220 221 219 217 218 220 221 222 224 225 227 228 226 225 226 227 227 228 229 228 229 230 230 232
297 297 297 296 295 295 297 297 297 300 303 305 308 310 311 311 312 312 313 314 316 318 319 321 323 326 329 334 337 341 344 347 351 356 0 3 214 204 211 214 215 210 202 200 205 210 213 214 214 216 220 222 221 219 220 221 222 222 224 226 227 227 226 225 226 227 229 230 229 229 229 230 232 233
297 297 296 294 292 292 292 292 293 296 300 304 307 309 311 312 312 312 312 313 314 316 317 319 322 326 330 334 338 341 344 348 352 357 2 11 26 197 204 207 209 208 202 200 205 210 213 215 217 218 220 222 221 220 220 220 221 223 225 226 226 226 225 225 225 227 229 231 231 231 230 231 233 235
292 291 290 289 288 289 288 288 290 294 298 302 305 307 309 310 311 310 310 311 312 313 316 318 321 326 331 335 338 342 344 348 354 358 2 10 21 156 201 205 207 207 206 205 207 210 213 215 217 219 221 222 223 223 221 219 220 221 222 224 225 225 224 223 224 227 229 231 232 231 231 231 233 234
288 287 285 284 285 286 286 287 289 291 295 298 301 304 306 307 309 309 308 309 310 311 313 316 319 325 331 335 337 342 345 348 353 359 2 9 22 38 191 207 209 208 208 209 210 211 213 214 215 217 219 221 222 224 222 220 221 222 221 221 222 222 222 222 223 225 228 231 232 232 231 231 231 232
291 290 286 285 285 285 285 286 288 290 293 297 299 301 303 305 307 307 307 307 308 308 309 314 318 322 329 334 337 342 347 349 351 358 4 10 21 33 50 205 215 217 215 212 211 211 212 213 215 217 220 221 222 223 224 224 224 224 222 220 219 219 219 221 223 225 228 231 233 232 231 231 231 231
292 292 287 284 284 284 285 286 288 290 293 296 297 299 302 304 305 306 306 306 307 308 309 313 318 321 325 332 336 341 347 350 352 357 4 10 19 30 39 56 205 222 225 222 217 213 213 214 216 217 220 222 223 223 223 224 226 225 223 220 219 219 220 221 223 227 230 231 231 231 231 230 229 229
286 286 284 282 282 283 285 285 287 289 292 295 298 299 302 304 304 305 306 306 306 309 311 312 316 319 321 326 334 340 346 350 353 357 3 11 19 25 31 39 51 194 219 224 224 220 217 217 217 217 219 221 224 225 224 223 223 224 223 221 220 221 223 224 224 227 229 229 227 228 230 230 229 229
281 284 286 286 285 285 286 286 287 290 292 294 297 299 301 303 304 304 305 305 306 308 311 311 313 316 320 324 331 339 344 348 352 357 2 10 17 23 26 27 31 49 123 198 215 222 224 221 217 217 220 221 222 224 225 226 226 225 223 224 224 223 224 225 225 226 226 225 225 227 229 230 230 230
284 287 289 289 288 288 289 290 290 292 293 294 296 297 298 299 302 302 302 303 305 307 310 312 312 314 320 324 327 333 340 346 351 356 2 8 14 21 26 24 20 26 50 103 164 198 214 218 215 217 221 222 220 221 222 224 227 228 226 224 224 224 224 224 225 225 226 227 230 232 232 232 232 232
287 289 290 290 291 292 292 293 293 293 294 294 294 295 296 297 299 301 300 301 304 307 309 313 316 316 319 322 324 327 334 342 349 356 2 7 11 16 23 25 26 25 25 38 75 129 175 190 194 206 213 212 211 216 220 221 223 224 225 225 225 224 225 226 227 229 231 232 234 236 236 236 236 235
288 290 291 293 295 295 293 293 293 292 292 293 292 294 297 298 299 301 303 303 305 310 313 316 319 320 319 320 323 326 330 336 344 354 0 4 8 12 17 21 26 30 30 26 36 68 103 113 107 124 174 188 193 202 210 215 219 222 223 225 227 227 228 229 230 232 234 235 235 235 234 233 234 234
287 290 292 293 294 295 293 292 291 290 290 291 293 294 298 301 301 303 306 309 311 315 320 321 322 323 324 322 322 325 328 330 336 346 355 0 4 8 13 18 23 28 31 31 31 40 59 81 92 103 120 134 144 164 182 194 205 215 219 222 226 228 229 229 229 230 231 231 230 230 230 231 233 235
287 290 292 293 293 294 293 290 290 290 289 290 293 297 301 305 308 309 313 319 322 324 328 331 331 329 329 327 326 326 326 327 329 333 342 355 3 5 9 16 21 24 28 31 32 34 35 38 54 77 98 105 98 96 114 144 166 185 201 213 221 225 226 227 227 227 228 227 227 230 233 233 233 236
289 291 292 293 293 294 293 291 290 290 290 290 294 300 305 311 317 323 330 336 340 342 344 347 348 345 339 334 333 332 328 324 325 324 326 340 357 5 8 12 18 21 25 27 29 32 34 34 36 40 46 60 76 78 80 95 118 142 164 184 200 211 219 224 228 229 230 229 229 233 234 230 230 236
Height
3151 3150 3149 3148 3147 3146 3145 3144 3143 3142 3141 3140 3138 3137 3135 3134 3132 3131 3131 3132 3132 3130 3129 3129 3128 3127 3126 3124 3123 3122 3121 3122 3121 3121 3121 3122 3124 3126 3127 3127 3129 3130 3132 3134 3136 3138 3139 3141 3143 3145 3147 3149 3151 3153 3155 3157 3159 3161 3162 3164 3166 3167 3169 3171 3173 3175 3176 3177 3178 3179 3180 3181 3182 3182
3149 3148 3146 3145 3144 3144 3143 3142 3141 3140 3138 3137 3136 3134 3133 3131 3129 3127 3125 3126 3127 3126 3125 3125 3123 3122 3121 3120 3118 3117 3116 3116 3116 3116 3116 3117 3119 3120 3122 3122 3123 3125 3126 3128 3130 3132 3134 3136 3138 3140 3142 3144 3146 3148 3150 3152 3154 3156 3158 3159 3161 3163 3165 3167 3169 3170 3172 3173 3175 3176 3177 3177 3178 3179
3146 3145 3144 3143 3142 3141 3140 3139 3138 3136 3135 3134 3133 3132 3130 3128 3127 3125 3122 3121 3122 3122 3121 3120 3119 3117 3116 3115 3113 3112 3112 3111 3111 3110 3111 3112 3113 3114 3116 3117 3118 3120 3121 3123 3124 3126 3128 3131 3133 3135 3137 3139 3141 3143 3145 3147 3149 3151 3153 3155 3157 3158 3160 3162 3164 3166 3168 3169 3171 3172 3173 3174 3175 3175
3144 3143 3141 3140 3139 3138 3137 3136 3135 3133 3132 3130 3129 3128 3127 3126 3124 3123 3120 3117 3117 3117 3116 3115 3114 3112 3110 3109 3107 3106 3106 3106 3105 3104 3105 3106 3108 3108 3110 3111 3113 3114 3116 3118 3119 3121 3123 3125 3127 3130 3132 3134 3136 3139 3141 3143 3145 3147 3149 3151 3152 3154 3156 3158 3160 3162 3164 3165 3167 3168 3169 3170 3171 3172
3141 3140 3139 3137 3136 3135 3134 3133 3131 3130 3128 3127 3125 3124 3123 3123 3122 3120 3118 3114 3112 3112 3112 3111 3109 3107 3104 3103 3102 3099 3099 3100 3099 3098 3099 3101 3102 3103 3104 3106 3107 3109 3111 3113 3114 3116 3118 3120 3122 3125 3127 3129 3131 3134 3136 3138 3140 3142 3144 3146 3148 3150 3152 3153 3155 3157 3159 3161 3163 3164 3165 3166 3167 3168
3138 3137 3136 3134 3133 3132 3131 3130 3128 3127 3125 3123 3122 3121 3120 3119 3119 3117 3114 3112 3108 3106 3107 3106 3104 3102 3100 3097 3096 3094 3092 3093 3093 3093 3093 3094 3096 3097 3099 3100 3102 3104 3106 3107 3110 3111 3113 3115 3117 3119 3122 3124 3126 3129 3131 3134 3136 3138 3140 3142 3144 3146 3147 3149 3151 3153 3155 3157 3158 3160 3161 3162 3163 3164
3136 3134 3133 3132 3130 3129 3128 3127 3125 3123 3122 3121 3119 3118 3117 3115 3115 3114 3112 3109 3105 3102 3101 3102 3100 3097 3095 3092 3090 3088 3086 3086 3086 3086 3087 3088 3089 3091 3093 3095 3097 3099 3101 3103 3104 3106 3108 3110 3112 3114 3116 3118 3121 3123 3126 3128 3131 3133 3135 3137 3139 3141 3143 3145 3147 3148 3150 3152 3154 3156 3157 3158 3159 3160
3133 3131 3130 3129 3127 3126 3125 3124 3122 3121 3119 3118 3116 3115 3114 3112 3111 3111 3109 3106 3103 3099 3097 3097 3096 3092 3090 3087 3085 3082 3080 3080 3079 3079 3081 3082 3083 3085 3087 3089 3091 3094 3096 3098 3099 3101 3103 3105 3107 3109 3111 3113 3115 3118 3120 3123 3125 3128 3131 3133 3135 3137 3139 3140 3142 3144 3146 3148 3150 3151 3153 3154 3155 3156
3130 3129 3128 3126 3125 3123 3122 3121 3120 3118 3117 3115 3113 3112 3110 3109 3107 3107 3106 3103 3100 3097 3094 3092 3091 3089 3086 3083 3081 3077 3074 3073 3074 3073 3074 3076 3077 3079 3081 3083 3086 3089 3091 3092 3094 3096 3098 3100 3102 3104 3106 3108 3110 3112 3115 3117 3120 3123 3126 3128 3131 3132 3134 3136 3137 3139 3141 3143 3145 3147 3149 3150 3151 3152
3128 3126 3125 3124 3122 3121 3120 3119 3117 3115 3114 3112 3110 3109 3107 3106 3104 3103 3102 3100 3097 3095 3092 3089 3086 3085 3082 3078 3076 3073 3069 3067 3067 3067 3068 3070 3071 3072 3074 3077 3080 3083 3085 3087 3089 3091 3093 3095 3097 3099 3101 3103 3106 3108 3110 3112 3115 3118 3121 3123 3126 3128 3129 3131 3133 3134 3136 3138 3140 3142 3144 3146 3147 3148
3125 3124 3122 3121 3120 3118 3117 3116 3114 3112 3111 3109 3108 3106 3105 3103 3101 3099 3098 3096 3094 3091 3089 3086 3083 3080 3078 3074 3071 3068 3065 3063 3062 3062 3061 3063 3065 3066 3068 3070 3074 3076 3078 3081 3084 3086 3087 3089 3092 3094 3096 3099 3101 3103 3106 3108 3110 3113 3115 3118 3121 3123 3124 3126 3128 3129 3131 3133 3135 3137 3139 3141 3143 3144
3123 3122 3120 3118 3117 3115 3114 3113 3111 3110 3108 3106 3105 3104 3102 3099 3098 3096 3094 3092 3090 3088 3086 3083 3079 3076 3074 3071 3066 3063 3061 3059 3059 3058 3056 3057 3059 3061 3062 3064 3067 3070 3072 3074 3077 3079 3081 3083 3086 3088 3090 3093 3095 3098 3100 3103 3105 3107 3110 3113 3116 3118 3120 3121 3123 3125 3126 3128 3130 3133 3135 3136 3138 3140
3121 3119 3117 3115 3114 3112 3111 3110 3108 3107 3105 3103 3102 3101 3099 3096 3094 3092 3091 3089 3087 3084 3082 3080 3076 3073 3070 3066 3062 3060 3057 3055 3054 3054 3053 3052 3053 3055 3056 3058 3061 3064 3066 3068 3070 3073 3076 3078 3080 3083 3085 3088 3091 3093 3095 3097 3100 3103 3105 3108 3111 3113 3115 3116 3118 3120 3122 3124 3126 3128 3130 3132 3134 3136
3119 3117 3115 3113 3111 3110 3109 3107 3105 3103 3102 3100 3099 3097 3095 3093 3091 3089 3087 3085 3083 3081 3079 3076 3073 3069 3066 3063 3060 3056 3054 3051 3050 3049 3049 3047 3048 3049 3050 3052 3056 3058 3060 3062 3065 3068 3071 3073 3075 3077 3080 3083 3086 3088 3090 3093 3095 3098 3101 3103 3106 3108 3110 3112 3113 3115 3117 3119 3121 3123 3125 3127 3129 3131
3116 3114 3112 3111 3109 3107 3106 3104 3102 3100 3099 3097 3095 3094 3092 3090 3088 3085 3083 3082 3080 3077 3074 3072 3069 3065 3062 3060 3057 3054 3051 3048 3045 3045 3044 3043 3043 3044 3043 3046 3050 3054 3055 3057 3059 3062 3066 3068 3069 3072 3075 3078 3081 3083 3086 3089 3091 3094 3096 3098 3101 3103 3105 3107 3109 3110 3112 3114 3116 3118 3120 3123 3125 3127
3112 3111 3109 3108 3106 3104 3103 3101 3099 3098 3096 3094 3092 3091 3089 3087 3084 3082 3080 3078 3076 3073 3070 3068 3066 3063 3059 3056 3054 3051 3047 3044 3042 3040 3039 3039 3039 3039 3038 3039 3044 3049 3051 3051 3052 3056 3060 3062 3064 3066 3070 3073 3076 3079 3082 3085 3087 3089 3091 3094 3096 3098 3100 3102 3103 3105 3107 3109 3112 3114 3116 3118 3120 3122
3109 3107 3106 3104 3103 3101 3099 3098 3096 3095 3093 3092 3089 3087 3086 3084 3082 3079 3077 3074 3071 3069 3067 3064 3063 3061 3057 3053 3050 3047 3043 3040 3038 3036 3034 3034 3034 3034 3033 3034 3037 3043 3046 3046 3046 3049 3054 3056 3058 3060 3065 3069 3071 3074 3077 3080 3082 3084 3086 3089 3091 3093 3095 3097 3099 3100 3103 3105 3107 3109 3111 3113 3116 3118
3106 3104 3102 3101 3100 3098 3096 3095 3093 3092 3090 3088 3087 3085 3082 3081 3079 3077 3074 3071 3068 3066 3064 3062 3060 3059 3055 3050 3046 3043 3040 3036 3033 3031 3029 3029 3028 3028 3028 3029 3031 3036 3039 3040 3041 3043 3047 3051 3052 3055 3060 3064 3066 3069 3072 3075 3077 3079 3081 3083 3086 3088 3090 3092 3094 3096 3098 3100 3102 3104 3107 3109 3111 3113
3103 3101 3099 3098 3097 3095 3094 3092 3090 3089 3087 3085 3084 3082 3080 3078 3076 3074 3072 3069 3066 3064 3061 3059 3056 3054 3051 3047 3043 3040 3036 3032 3028 3026 3024 3023 3022 3022 3022 3023 3025 3028 3032 3035 3035 3036 3041 3046 3047 3050 3056 3059 3061 3064 3067 3069 3072 3074 3076 3078 3080 3083 3085 3087 3089 3091 3093 3096 3098 3100 3102 3104 3106 3109
3100 3098 3096 3095 3094 3092 3091 3089 3087 3086 3084 3083 3081 3079 3077 3075 3074 3072 3069 3067 3064 3062 3059 3056 3054 3051 3048 3045 3040 3037 3032 3027 3023 3020 3018 3018 3017 3015 3015 3016 3018 3022 3026 3029 3030 3031 3036 3041 3043 3047 3051 3053 3055 3058 3061 3064 3067 3069 3071 3073 3075 3078 3080 3082 3084 3087 3089 3091 3093 3096 3098 3100 3102 3104
3098 3096 3094 3092 3091 3090 3088 3086 3084 3083 3081 3079 3077 3076 3074 3072 3071 3069 3067 3064 3062 3059 3057 3054 3051 3048 3045 3042 3038 3033 3028 3023 3018 3014 3011 3011 3011 3010 3009 3010 3013 3016 3020 3024 3025 3026 3030 3036 3040 3043 3045 3047 3049 3053 3056 3059 3062 3064 3066 3068 3070 3073 3075 3077 3080 3082 3084 3087 3089 3091 3093 3096 3098 3100
3095 3093 3091 3089 3088 3087 3085 3082 3081 3079 3077 3076 3074 3072 3070 3069 3067 3066 3064 3062 3059 3057 3054 3052 3049 3046 3043 3038 3034 3028 3023 3019 3014 3009 3006 3005 3005 3004 3003 3005 3007 3010 3013 3018 3021 3021 3024 3031 3035 3037 3039 3041 3044 3047 3051 3054 3056 3058 3061 3063 3065 3068 3070 3072 3075 3077 3080 3082 3084 3087 3089 3091 3093 3095
3092 3090 3088 3086 3085 3083 3081 3079 3078 3076 3074 3072 3071 3069 3067 3065 3064 3062 3060 3058 3055 3053 3051 3048 3046 3043 3039 3034 3029 3024 3018 3014 3010 3005 3002 2999 2998 2997 2997 3000 3002 3002 3006 3013 3016 3016 3020 3026 3030 3032 3034 3036 3039 3043 3046 3049 3051 3053 3056 3058 3060 3063 3065 3067 3070 3072 3075 3077 3080 3082 3084 3086 3088 3090
3089 3088 3086 3084 3082 3080 3078 3076 3074 3073 3071 3069 3067 3065 3064 3062 3060 3058 3056 3054 3051 3049 3047 3044 3041 3037 3034 3030 3025 3020 3014 3009 3004 3000 2997 2994 2992 2990 2991 2994 2996 2996 3001 3009 3011 3013 3017 3021 3024 3027 3029 3031 3035 3039 3041 3044 3046 3049 3051 3054 3056 3059 3061 3063 3065 3068 3070 3073 3075 3077 3080 3082 3084 3086
3087 3085 3084 3081 3079 3077 3075 3073 3071 3069 3067 3065 3064 3062 3060 3058 3056 3054 3052 3050 3048 3045 3043 3040 3037 3033 3030 3026 3022 3016 3010 3004 2998 2994 2991 2989 2986 2984 2984 2988 2990 2991 2996 3003 3006 3009 3013 3016 3019 3022 3024 3026 3030 3034 3037 3039 3042 3044 3047 3050 3052 3055 3057 3059 3061 3064 3066 3068 3071 3073 3075 3078 3080 3082
3083 3082 3081 3078 3076 3074 3072 3070 3068 3066 3064 3062 3060 3059 3057 3055 3053 3050 3048 3046 3044 3042 3039 3036 3033 3030 3026 3022 3017 3012 3006 2999 2992 2987 2984 2982 2980 2978 2979 2982 2984 2986 2992 2998 3001 3005 3008 3011 3015 3018 3019 3022 3026 3029 3032 3035 3038 3040 3043 3046 3048 3051 3052 3054 3057 3059 3062 3065 3067 3069 3072 3074 3076 3079
3080 3079 3077 3075 3073 3072 3069 3067 3065 3063 3061 3059 3057 3055 3054 3052 3050 3048 3045 3043 3041 3039 3036 3033 3031 3027 3023 3018 3013 3007 3001 2994 2987 2981 2978 2975 2973 2973 2974 2976 2979 2983 2988 2992 2996 2999 3003 3006 3010 3013 3015 3018 3022 3024 3027 3031 3034 3037 3039 3041 3044 3046 3048 3050 3052 3055 3058 3061 3063 3065 3067 3069 3072 3075
3077 3075 3073 3072 3070 3068 3066 3064 3062 3060 3058 3056 3054 3053 3051 3049 3047 3045 3043 3040 3038 3036 3033 3031 3028 3024 3020 3015 3009 3003 2997 2991 2983 2977 2973 2969 2967 2967 2969 2971 2974 2978 2983 2986 2990 2994 2997 3001 3005 3009 3012 3014 3017 3019 3023 3027 3030 3033 3035 3037 3040 3042 3044 3046 3049 3051 3053 3056 3058 3060 3063 3065 3068 3071
3073 3071 3069 3068 3067 3065 3064 3062 3059 3057 3055 3054 3052 3050 3049 3047 3045 3042 3040 3038 3036 3033 3031 3028 3025 3022 3018 3013 3007 3002 2996 2989 2982 2975 2969 2965 2963 2963 2964 2967 2970 2974 2978 2981 2986 2990 2993 2997 3001 3005 3007 3010 3012 3016 3020 3023 3026 3029 3031 3034 3036 3039 3040 3042 3044 3047 3049 3051 3053 3056 3059 3062 3065 3068
3069 3067 3065 3064 3064 3062 3060 3058 3056 3054 3053 3051 3049 3048 3046 3044 3042 3040 3038 3036 3033 3031 3028 3026 3023 3019 3016 3011 3007 3001 2996 2989 2981 2973 2967 2963 2961 2961 2962 2964 2967 2970 2974 2978 2982 2986 2989 2993 2997 3000 3003 3006 3009 3012 3016 3019 3022 3025 3027 3030 3033 3034 3036 3038 3041 3043 3045 3047 3049 3052 3055 3058 3061 3063
3065 3063 3062 3061 3061 3059 3057 3055 3053 3051 3050 3048 3047 3045 3044 3042 3040 3037 3035 3033 3030 3028 3025 3023 3020 3017 3014 3010 3006 3001 2995 2989 2981 2974 2967 2963 2961 2961 2962 2963 2965 2968 2971 2975 2979 2982 2986 2989 2993 2997 3001 3003 3006 3009 3012 3015 3018 3021 3024 3027 3029 3031 3033 3035 3037 3039 3042 3044 3046 3048 3050 3053 3056 3058
3061 3059 3058 3058 3057 3056 3054 3052 3050 3049 3047 3046 3044 3043 3041 3039 3037 3035 3033 3031 3028 3025 3023 3020 3018 3016 3012 3009 3005 3001 2995 2989 2982 2975 2969 2963 2960 2960 2960 2961 2962 2965 2968 2973 2976 2979 2982 2986 2990 2994 2998 3001 3004 3006 3008 3011 3014 3017 3020 3023 3025 3027 3029 3031 3034 3036 3038 3040 3042 3044 3046 3049 3051 3054
3057 3055 3055 3054 3054 3053 3051 3049 3047 3046 3045 3043 3042 3040 3039 3037 3035 3033 3031 3029 3026 3024 3021 3019 3016 3014 3011 3008 3004 3000 2996 2990 2983 2977 2970 2964 2960 2958 2958 2959 2960 2963 2966 2969 2973 2976 2980 2983 2987 2991 2994 2997 2999 3001 3003 3007 3010 3014 3016 3019 3021 3023 3026 3028 3030 3032 3034 3036 3038 3040 3042 3045 3048 3051
3053 3052 3051 3051 3050 3049 3048 3046 3045 3043 3042 3041 3039 3038 3036 3035 3032 3030 3028 3027 3025 3022 3019 3017 3014 3012 3010 3007 3004 3000 2996 2991 2985 2979 2973 2966 2960 2957 2956 2957 2960 2962 2965 2968 2971 2974 2977 2980 2983 2987 2990 2992 2995 2997 2999 3003 3007 3010 3012 3015 3017 3020 3022 3024 3026 3028 3030 3032 3034 3036 3038 3041 3044 3047
3049 3048 3048 3047 3047 3046 3045 3043 3042 3041 3040 3039 3037 3036 3034 3032 3030 3028 3026 3024 3022 3020 3018 3015 3013 3011 3008 3005 3003 3000 2995 2991 2986 2981 2975 2968 2962 2958 2957 2957 2959 2961 2964 2966 2969 2971 2974 2977 2980 2982 2985 2989 2991 2994 2997 3000 3003 3006 3008 3011 3014 3016 3018 3020 3022 3024 3026 3028 3030 3032 3034 3037 3039 3042
3045 3045 3045 3044 3044 3043 3042 3041 3039 3038 3037 3036 3035 3033 3032 3030 3028 3025 3023 3022 3020 3018 3016 3014 3011 3009 3007 3005 3002 2999 2996 2992 2988 2983 2977 2970 2965 2961 2959 2958 2959 2960 2962 2965 2967 2970 2972 2975 2977 2979 2982 2985 2988 2990 2994 2997 3000 3002 3005 3008 3010 3012 3014 3016 3018 3020 3022 3024 3026 3028 3030 3033 3035 3038
3043 3042 3042 3042 3041 3040 3039 3038 3037 3035 3034 3033 3032 3030 3029 3027 3025 3023 3021 3019 3017 3015 3013 3011 3009 3007 3005 3004 3002 2999 2996 2993 2989 2985 2979 2973 2968 2964 2961 2959 2959 2959 2961 2964 2968 2970 2971 2973 2975 2976 2978 2981 2984 2987 2991 2994 2996 2999 3001 3004 3006 3009 3010 3012 3013 3016 3018 3020 3022 3024 3027 3029 3032 3034
3040 3040 3039 3039 3038 3038 3036 3035 3034 3033 3031 3030 3028 3027 3026 3024 3022 3020 3018 3017 3015 3013 3011 3009 3007 3005 3003 3002 3001 2999 2997 2993 2990 2987 2983 2977 2971 2967 2964 2962 2961 2960 2960 2962 2965 2968 2969 2970 2971 2973 2975 2977 2980 2984 2987 2990 2992 2994 2997 3000 3003 3005 3006 3008 3010 3012 3015 3017 3019 3021 3023 3025 3028 3030
3038 3037 3037 3036 3035 3034 3034 3033 3031 3030 3028 3027 3025 3024 3023 3021 3020 3018 3016 3014 3013 3011 3009 3007 3006 3004 3002 3001 2999 2998 2996 2994 2991 2988 2985 2981 2975 2971 2968 2965 2963 2962 2961 2960 2961 2963 2965 2966 2967 2970 2972 2974 2977 2981 2984 2986 2988 2990 2994 2997 2999 3000 3002 3004 3006 3009 3011 3013 3016 3018 3019 3021 3023 3024
3035 3035 3034 3033 3032 3031 3031 3030 3028 3027 3026 3024 3023 3022 3020 3019 3017 3016 3014 3012 3011 3009 3008 3006 3004 3002 3001 2999 2998 2997 2995 2994 2991 2989 2986 2983 2980 2976 2972 2969 2967 2965 2963 2961 2960 2959 2961 2963 2965 2966 2968 2971 2975 2978 2979 2981 2984 2987 2990 2992 2994 2996 2998 3001 3003 3005 3007 3010 3012 3014 3015 3017 3019 3020
3033 3032 3031 3030 3030 3029 3028 3027 3025 3024 3023 3021 3020 3019 3018 3016 3015 3013 3012 3011 3009 3008 3006 3004 3003 3001 2999 2998 2997 2996 2995 2993 2992 2990 2987 2985 2982 2980 2977 2974 2971 2967 2966 2964 2961 2958 2958 2961 2963 2964 2965 2967 2969 2972 2975 2977 2980 2982 2985 2987 2989 2992 2995 2997 3000 3002 3004 3006 3008 3010 3011 3013 3014 3016
3030 3029 3029 3028 3027 3026 3025 3023 3022 3021 3020 3018 3017 3016 3015 3014 3012 3011 3010 3008 3007 3006 3004 3003 3001 3000 2998 2997 2995 2994 2994 2993 2992 2990 2989 2986 2984 2982 2980 2977 2974 2971 2968 2967 2964 2961 2961 2961 2962 2963 2964 2964 2964 2966 2970 2974 2976 2978 2980 2982 2985 2988 2991 2993 2996 2998 3000 3003 3004 3005 3007 3009 3010 3011
3027 3027 3026 3025 3024 3023 3022 3020 3019 3018 3017 3016 3015 3014 3013 3012 3010 3009 3008 3007 3005 3004 3003 3001 3000 2999 2997 2996 2994 2993 2993 2992 2991 2990 2989 2987 2986 2984 2981 2979 2977 2974 2972 2970 2968 2966 2965 2964 2963 2963 2964 2964 2964 2964 2965 2968 2971 2974 2976 2979 2981 2983 2986 2989 2991 2994 2996 2998 3000 3002 3004 3005 3006 3008
3025 3024 3023 3022 3021 3020 3019 3017 3017 3016 3015 3014 3012 3011 3010 3010 3009 3008 3006 3005 3004 3002 3001 3000 2999 2998 2996 2995 2994 2993 2992 2991 2991 2990 2989 2988 2987 2985 2983 2981 2979 2977 2976 2974 2972 2970 2968 2968 2967 2966 2965 2965 2966 2966 2966 2966 2967 2970 2972 2975 2978 2980 2982 2985 2987 2989 2992 2995 2997 2999 3000 3001 3003 3005
3023 3021 3020 3019 3018 3017 3016 3015 3014 3014 3013 3012 3011 3010 3009 3008 3007 3007 3005 3004 3003 3002 3000 2999 2998 2997 2996 2994 2993 2992 2991 2990 2990 2989 2989 2988 2987 2986 2985 2983 2982 2980 2978 2977 2975 2974 2972 2971 2970 2970 2968 2968 2968 2969 2969 2968 2968 2968 2970 2972 2975 2977 2979 2981 2983 2985 2988 2991 2994 2995 2996 2998 3000 3002